Location: Newark
(22.3060°N, 114.2134°E)
Time: 07:13:39
(UTC+00:00)

Explorer 11/Cluster Stage 4 - Pass Details

Date: 31 July 2021
Orbit: 467 x 1256 km, 28.8° (Epoch: 24 September)

Event Time Altitude Azimuth Distance (km) Brightness Sun altitude
Rises 21:36:46 0° 200° (SSW) 3,567 9.5 -4.8°
Reaches altitude 10° 21:40:22 10° 180° (S) 2,783 9.2 -4.0°
Maximum altitude 21:44:27 16° 143° (SE) 2,493 9.4 -3.1°
Drops below altitude 10° 21:48:53 10° 108° (ESE) 3,077 10.5 -2.2°
Sets 21:53:08 0° 89° (E) 4,134 12.0 -1.2°
